TimeCST,TemperatureF,Dew PointF,Humidity,Sea Level PressureIn,VisibilityMPH,Wind Direction,Wind SpeedMPH,Gust SpeedMPH,PrecipitationIn,Events,Conditions,WindDirDegrees,DateUTC
12:15 AM,8.2,5.9,90,30.19,7.0,Calm,Calm,-,N/A,Snow,Light Snow,0,2013-12-31 06:15:00
12:35 AM,9.5,7.3,91,30.20,7.0,Calm,Calm,-,N/A,Snow,Light Snow,0,2013-12-31 06:35:00
12:55 AM,9.5,7.0,90,30.20,7.0,Calm,Calm,-,N/A,Snow,Light Snow,0,2013-12-31 06:55:00
1:15 AM,8.2,5.7,89,30.19,7.0,Calm,Calm,-,N/A,Snow,Light Snow,0,2013-12-31 07:15:00
1:35 AM,8.1,5.5,89,30.19,10.0,Calm,Calm,-,N/A,,Overcast,0,2013-12-31 07:35:00
1:55 AM,8.4,5.9,89,30.20,7.0,Calm,Calm,-,N/A,Snow,Light Snow,0,2013-12-31 07:55:00
2:15 AM,5.0,2.1,88,30.21,10.0,NNW,3.5,-,N/A,,Mostly Cloudy,340,2013-12-31 08:15:00
2:35 AM,5.0,2.3,89,30.21,10.0,North,3.5,-,N/A,Snow,Light Snow,350,2013-12-31 08:35:00
2:55 AM,4.1,1.6,89,30.21,7.0,North,3.5,-,N/A,,Clear,350,2013-12-31 08:55:00
3:15 AM,2.1,-1.3,86,30.21,10.0,NNW,3.5,-,N/A,,Clear,340,2013-12-31 09:15:00
3:35 AM,2.5,-0.4,88,30.21,10.0,North,3.5,-,N/A,,Clear,350,2013-12-31 09:35:00
3:55 AM,2.7,-0.8,86,30.21,10.0,Calm,Calm,-,N/A,,Clear,0,2013-12-31 09:55:00
4:15 AM,-0.9,-4.5,85,30.23,10.0,NW,4.6,-,N/A,,Clear,310,2013-12-31 10:15:00
4:35 AM,-1.7,-4.7,87,30.22,10.0,Calm,Calm,-,N/A,,Clear,0,2013-12-31 10:35:00
4:55 AM,-0.9,-4.2,86,30.23,10.0,Calm,Calm,-,N/A,,Clear,0,2013-12-31 10:55:00
5:15 AM,-1.7,-5.3,85,30.23,10.0,Calm,Calm,-,N/A,,Clear,0,2013-12-31 11:15:00
5:35 AM,-2.4,-6.2,84,30.25,10.0,WNW,5.8,-,N/A,,Clear,300,2013-12-31 11:35:00
5:55 AM,-2.7,-6.7,83,30.26,10.0,NW,4.6,-,N/A,,Clear,310,2013-12-31 11:55:00
6:15 AM,-3.5,-7.2,84,30.27,10.0,WNW,4.6,-,N/A,,Clear,300,2013-12-31 12:15:00
6:35 AM,-0.9,-4.2,86,30.28,10.0,WNW,4.6,-,N/A,,Clear,290,2013-12-31 12:35:00
6:55 AM,-1.8,-5.8,83,30.30,10.0,West,6.9,-,N/A,,Clear,270,2013-12-31 12:55:00
7:15 AM,-0.6,-4.0,85,30.29,10.0,WNW,3.5,-,N/A,,Clear,290,2013-12-31 13:15:00
7:35 AM,-0.6,-4.2,85,30.29,7.0,Calm,Calm,-,N/A,,Clear,0,2013-12-31 13:35:00
7:55 AM,-0.4,-4.0,85,30.32,10.0,West,5.8,-,N/A,,Clear,270,2013-12-31 13:55:00
8:15 AM,3.0,-0.6,85,30.33,7.0,WSW,4.6,-,N/A,,Scattered Clouds,250,2013-12-31 14:15:00
8:35 AM,4.5,0.7,84,30.34,10.0,West,4.6,-,N/A,,Mostly Cloudy,280,2013-12-31 14:35:00
8:55 AM,7.0,3.7,87,30.35,7.0,West,6.9,-,N/A,,Mostly Cloudy,270,2013-12-31 14:55:00
9:15 AM,8.4,5.0,86,30.35,10.0,West,4.6,-,N/A,,Mostly Cloudy,280,2013-12-31 15:15:00
9:35 AM,8.1,4.8,87,30.37,10.0,West,9.2,-,N/A,,Overcast,270,2013-12-31 15:35:00
9:55 AM,9.0,5.9,87,30.38,10.0,West,9.2,-,N/A,,Overcast,260,2013-12-31 15:55:00
10:15 AM,9.7,6.6,87,30.36,10.0,Calm,Calm,-,N/A,,Overcast,0,2013-12-31 16:15:00
10:35 AM,10.2,7.2,87,30.35,10.0,SSW,3.5,-,N/A,,Overcast,210,2013-12-31 16:35:00
10:55 AM,10.4,7.2,87,30.35,10.0,SSW,4.6,-,N/A,,Overcast,210,2013-12-31 16:55:00
11:15 AM,11.1,7.2,84,30.34,10.0,SW,5.8,-,N/A,,Overcast,220,2013-12-31 17:15:00
11:35 AM,12.0,7.5,82,30.33,10.0,SW,4.6,-,N/A,,Overcast,220,2013-12-31 17:35:00
11:55 AM,12.2,7.0,80,30.33,10.0,Calm,Calm,-,N/A,,Overcast,0,2013-12-31 17:55:00
12:15 PM,12.6,6.8,78,30.31,10.0,Calm,Calm,-,N/A,,Overcast,0,2013-12-31 18:15:00
12:35 PM,13.1,6.3,74,30.30,10.0,Calm,Calm,-,N/A,,Mostly Cloudy,0,2013-12-31 18:35:00
12:55 PM,13.3,5.9,72,30.29,10.0,Calm,Calm,-,N/A,,Overcast,0,2013-12-31 18:55:00
1:15 PM,14.2,7.5,75,30.31,10.0,WSW,3.5,-,N/A,,Overcast,240,2013-12-31 19:15:00
1:35 PM,14.4,7.5,74,30.30,10.0,Calm,Calm,-,N/A,,Overcast,0,2013-12-31 19:35:00
1:55 PM,14.4,7.2,73,30.28,10.0,Calm,Calm,-,N/A,,Overcast,0,2013-12-31 19:55:00
2:15 PM,14.7,7.2,72,30.29,10.0,Calm,Calm,-,N/A,,Overcast,0,2013-12-31 20:15:00
2:35 PM,14.9,7.5,73,30.28,10.0,Calm,Calm,-,N/A,,Overcast,0,2013-12-31 20:35:00
2:55 PM,14.9,7.5,73,30.28,10.0,Calm,Calm,-,N/A,,Mostly Cloudy,0,2013-12-31 20:55:00
3:15 PM,14.7,7.5,73,30.28,10.0,Calm,Calm,-,N/A,,Scattered Clouds,0,2013-12-31 21:15:00
3:35 PM,14.9,8.4,76,30.27,10.0,East,4.6,-,N/A,,Scattered Clouds,80,2013-12-31 21:35:00
3:55 PM,14.9,8.8,77,30.26,10.0,East,4.6,-,N/A,,Mostly Cloudy,90,2013-12-31 21:55:00
4:15 PM,14.7,9.5,80,30.26,10.0,ENE,5.8,-,N/A,,Scattered Clouds,70,2013-12-31 22:15:00
4:35 PM,14.4,9.7,82,30.27,10.0,NE,6.9,-,N/A,,Scattered Clouds,50,2013-12-31 22:35:00
4:55 PM,14.4,9.9,82,30.27,10.0,NE,8.1,-,N/A,,Mostly Cloudy,50,2013-12-31 22:55:00
5:15 PM,13.5,8.6,81,30.28,10.0,NE,5.8,-,N/A,,Overcast,50,2013-12-31 23:15:00
5:35 PM,13.8,9.5,83,30.28,10.0,ENE,6.9,-,N/A,,Overcast,70,2013-12-31 23:35:00
5:55 PM,13.6,9.5,84,30.28,10.0,NE,5.8,-,N/A,,Overcast,50,2013-12-31 23:55:00
6:15 PM,13.8,9.7,84,30.29,10.0,NNE,10.4,-,N/A,,Overcast,30,2014-01-01 00:15:00
6:35 PM,13.6,9.5,84,30.29,10.0,NE,9.2,-,N/A,,Mostly Cloudy,50,2014-01-01 00:35:00
6:55 PM,13.6,9.3,83,30.30,10.0,NE,9.2,-,N/A,,Mostly Cloudy,50,2014-01-01 00:55:00
7:15 PM,14.0,9.9,84,30.30,10.0,NE,9.2,-,N/A,,Overcast,50,2014-01-01 01:15:00
7:35 PM,14.4,10.2,84,30.30,10.0,NE,10.4,-,N/A,,Overcast,40,2014-01-01 01:35:00
7:55 PM,14.4,9.5,81,30.29,10.0,NE,11.5,-,N/A,,Overcast,50,2014-01-01 01:55:00
8:15 PM,14.4,9.5,81,30.29,10.0,NE,12.7,-,N/A,,Overcast,50,2014-01-01 02:15:00
8:35 PM,14.2,9.7,82,30.28,10.0,NE,11.5,-,N/A,,Overcast,50,2014-01-01 02:35:00
8:55 PM,14.4,10.0,83,30.27,10.0,ENE,15.0,-,N/A,,Overcast,60,2014-01-01 02:55:00
9:15 PM,14.4,9.5,81,30.27,10.0,NE,12.7,-,N/A,,Overcast,50,2014-01-01 03:15:00
9:35 PM,14.4,9.9,82,30.26,10.0,ENE,12.7,-,N/A,,Overcast,60,2014-01-01 03:35:00
9:55 PM,14.4,10.0,83,30.25,10.0,ENE,15.0,-,N/A,,Overcast,60,2014-01-01 03:55:00
10:15 PM,14.4,10.4,84,30.26,10.0,NE,15.0,-,N/A,,Overcast,50,2014-01-01 04:15:00
10:35 PM,14.4,10.4,84,30.26,10.0,NE,15.0,-,N/A,,Overcast,50,2014-01-01 04:35:00
10:55 PM,14.4,10.4,84,30.26,10.0,NE,13.8,-,N/A,,Overcast,50,2014-01-01 04:55:00
11:15 PM,14.4,10.2,84,30.26,10.0,NE,15.0,-,N/A,,Overcast,50,2014-01-01 05:15:00
11:35 PM,14.4,10.2,84,30.25,10.0,ENE,12.7,-,N/A,,Overcast,60,2014-01-01 05:35:00
11:55 PM,14.4,10.0,83,30.25,10.0,ENE,11.5,-,N/A,,Overcast,60,2014-01-01 05:55:00